����������;��������(kWh)
2017-09-18 00:00;86,85
2017-09-18 00:15;87,65
2017-09-18 00:30;89,65
2017-09-18 00:45;96,5
2017-09-18 01:00;101,9
2017-09-18 01:15;100
2017-09-18 01:30;91,35
2017-09-18 01:45;92,65
2017-09-18 02:00;91,95
2017-09-18 02:15;94,45
2017-09-18 02:30;92,9
2017-09-18 02:45;92,1
2017-09-18 03:00;90,65
2017-09-18 03:15;92,6
2017-09-18 03:30;91,45
2017-09-18 03:45;91,05
2017-09-18 04:00;89
2017-09-18 04:15;92,55
2017-09-18 04:30;91,55
2017-09-18 04:45;90,05
2017-09-18 05:00;90,7
2017-09-18 05:15;92,4
2017-09-18 05:30;92
2017-09-18 05:45;95,05
2017-09-18 06:00;94,75
2017-09-18 06:15;95,65
2017-09-18 06:30;100,3
2017-09-18 06:45;97,25
2017-09-18 07:00;99,1
2017-09-18 07:15;97,5
2017-09-18 07:30;145
2017-09-18 07:45;157,9
2017-09-18 08:00;159,5
2017-09-18 08:15;123,45
2017-09-18 08:30;148,25
2017-09-18 08:45;159,3
2017-09-18 09:00;175,4
2017-09-18 09:15;190,7
2017-09-18 09:30;193,2
2017-09-18 09:45;205,95
2017-09-18 10:00;232,05
2017-09-18 10:15;226
2017-09-18 10:30;231,8
2017-09-18 10:45;241,1
2017-09-18 11:00;244,95
2017-09-18 11:15;259,05
2017-09-18 11:30;257,95
2017-09-18 11:45;264,9
2017-09-18 12:00;259,15
2017-09-18 12:15;282,7
2017-09-18 12:30;274,25
2017-09-18 12:45;291,55
2017-09-18 13:00;277,2
2017-09-18 13:15;262,1
2017-09-18 13:30;273,25
2017-09-18 13:45;267,2
2017-09-18 14:00;273,85
2017-09-18 14:15;270,25
2017-09-18 14:30;261,35
2017-09-18 14:45;278,4
2017-09-18 15:00;251
2017-09-18 15:15;251,8
2017-09-18 15:30;247,4
2017-09-18 15:45;229,35
2017-09-18 16:00;241,6
2017-09-18 16:15;220,15
2017-09-18 16:30;219,4
2017-09-18 16:45;211,95
2017-09-18 17:00;197,3
2017-09-18 17:15;195,45
2017-09-18 17:30;197,6
2017-09-18 17:45;198,4
2017-09-18 18:00;184,8
2017-09-18 18:15;177,25
2017-09-18 18:30;175,95
2017-09-18 18:45;158,9
2017-09-18 19:00;158,5
2017-09-18 19:15;152,2
2017-09-18 19:30;154,7
2017-09-18 19:45;156,8
2017-09-18 20:00;151,4
2017-09-18 20:15;147,45
2017-09-18 20:30;146,9
2017-09-18 20:45;145,2
2017-09-18 21:00;142,6
2017-09-18 21:15;137,1
2017-09-18 21:30;136,15
2017-09-18 21:45;129,35
2017-09-18 22:00;123,45
2017-09-18 22:15;126
2017-09-18 22:30;127
2017-09-18 22:45;116,25
2017-09-18 23:00;116,05
2017-09-18 23:15;106,55
2017-09-18 23:30;106,65
2017-09-18 23:45;105,5
2017-09-19 00:00;105,65
2017-09-19 00:15;107,65
2017-09-19 00:30;109,1
2017-09-19 00:45;105,95
2017-09-19 01:00;110,45
2017-09-19 01:15;105
2017-09-19 01:30;108
2017-09-19 01:45;94,5
2017-09-19 02:00;95,35
2017-09-19 02:15;95,05
2017-09-19 02:30;95,25
2017-09-19 02:45;94,65
2017-09-19 03:00;93,45
2017-09-19 03:15;94,1
2017-09-19 03:30;92,25
2017-09-19 03:45;94
2017-09-19 04:00;91,15
2017-09-19 04:15;94,3
2017-09-19 04:30;90,8
2017-09-19 04:45;92,4
2017-09-19 05:00;92,85
2017-09-19 05:15;94,55
2017-09-19 05:30;93,65
2017-09-19 05:45;94,75
2017-09-19 06:00;96,95
2017-09-19 06:15;97,8
2017-09-19 06:30;103,7
2017-09-19 06:45;111,45
2017-09-19 07:00;110,95
2017-09-19 07:15;102
2017-09-19 07:30;162,8
2017-09-19 07:45;170,9
2017-09-19 08:00;145,4
2017-09-19 08:15;140,8
2017-09-19 08:30;135,5
2017-09-19 08:45;173,1
2017-09-19 09:00;196
2017-09-19 09:15;206,05
2017-09-19 09:30;221,8
2017-09-19 09:45;226,4
2017-09-19 10:00;223,85
2017-09-19 10:15;233,5
2017-09-19 10:30;239,2
2017-09-19 10:45;239,3
2017-09-19 11:00;249,1
2017-09-19 11:15;264,3
2017-09-19 11:30;266,1
2017-09-19 11:45;266,3
2017-09-19 12:00;265,6
2017-09-19 12:15;280,8
2017-09-19 12:30;278,5
2017-09-19 12:45;286,1
2017-09-19 13:00;283,05
2017-09-19 13:15;308
2017-09-19 13:30;342,2
2017-09-19 13:45;340,75
2017-09-19 14:00;331,05
2017-09-19 14:15;314,45
2017-09-19 14:30;292,7
2017-09-19 14:45;275,2
2017-09-19 15:00;265,75
2017-09-19 15:15;256,2
2017-09-19 15:30;245,75
2017-09-19 15:45;235,95
2017-09-19 16:00;224,9
2017-09-19 16:15;210,6
2017-09-19 16:30;206,45
2017-09-19 16:45;201,65
2017-09-19 17:00;197,8
2017-09-19 17:15;193,65
2017-09-19 17:30;193
2017-09-19 17:45;191,6
2017-09-19 18:00;190,8
2017-09-19 18:15;183,7
2017-09-19 18:30;175,7
2017-09-19 18:45;173,6
2017-09-19 19:00;161,5
2017-09-19 19:15;160,65
2017-09-19 19:30;160,25
2017-09-19 19:45;165,85
2017-09-19 20:00;158,85
2017-09-19 20:15;151,1
2017-09-19 20:30;149,55
2017-09-19 20:45;142,75
2017-09-19 21:00;137,45
2017-09-19 21:15;136,1
2017-09-19 21:30;135,25
2017-09-19 21:45;130,1
2017-09-19 22:00;121,4
2017-09-19 22:15;123,75
2017-09-19 22:30;116,45
2017-09-19 22:45;108,95
2017-09-19 23:00;110,8
2017-09-19 23:15;100,3
2017-09-19 23:30;96
2017-09-19 23:45;97,55
2017-09-20 00:00;97,55
2017-09-20 00:15;99
2017-09-20 00:30;96,05
2017-09-20 00:45;99,2
2017-09-20 01:00;96
2017-09-20 01:15;99,55
2017-09-20 01:30;96,3
2017-09-20 01:45;97,45
2017-09-20 02:00;98,55
2017-09-20 02:15;97,05
2017-09-20 02:30;97,35
2017-09-20 02:45;96,05
2017-09-20 03:00;96,95
2017-09-20 03:15;97,45
2017-09-20 03:30;96,35
2017-09-20 03:45;97,65
2017-09-20 04:00;94,3
2017-09-20 04:15;97,6
2017-09-20 04:30;93,7
2017-09-20 04:45;97,2
2017-09-20 05:00;92,85
2017-09-20 05:15;94,95
2017-09-20 05:30;97,8
2017-09-20 05:45;95,7
2017-09-20 06:00;98,15
2017-09-20 06:15;104,6
2017-09-20 06:30;113,2
2017-09-20 06:45;120,3
2017-09-20 07:00;114,25
2017-09-20 07:15;111,9
2017-09-20 07:30;114,45
2017-09-20 07:45;120,45
2017-09-20 08:00;120,95
2017-09-20 08:15;126,6
2017-09-20 08:30;135,35
2017-09-20 08:45;146,55
2017-09-20 09:00;167,85
2017-09-20 09:15;177,95
2017-09-20 09:30;191,5
2017-09-20 09:45;195,95
2017-09-20 10:00;232,85
2017-09-20 10:15;278,15
2017-09-20 10:30;281,85
2017-09-20 10:45;283,45
2017-09-20 11:00;279,65
2017-09-20 11:15;253,3
2017-09-20 11:30;263,85
2017-09-20 11:45;254,6
2017-09-20 12:00;256,8
2017-09-20 12:15;259,8
2017-09-20 12:30;270,4
2017-09-20 12:45;264,15
2017-09-20 13:00;309,15
2017-09-20 13:15;318,8
2017-09-20 13:30;292,05
2017-09-20 13:45;266,35
2017-09-20 14:00;262,1
2017-09-20 14:15;247,15
2017-09-20 14:30;248
2017-09-20 14:45;245,45
2017-09-20 15:00;266,25
2017-09-20 15:15;291,45
2017-09-20 15:30;271,2
2017-09-20 15:45;237,4
2017-09-20 16:00;233,45
2017-09-20 16:15;225,5
2017-09-20 16:30;222,35
2017-09-20 16:45;221,5
2017-09-20 17:00;216,2
2017-09-20 17:15;216,55
2017-09-20 17:30;208,95
2017-09-20 17:45;207,3
2017-09-20 18:00;206,45
2017-09-20 18:15;196,75
2017-09-20 18:30;180,15
2017-09-20 18:45;166,9
2017-09-20 19:00;166,05
2017-09-20 19:15;156,8
2017-09-20 19:30;156,55
2017-09-20 19:45;159,45
2017-09-20 20:00;146,3
2017-09-20 20:15;138,9
2017-09-20 20:30;135,7
2017-09-20 20:45;131,6
2017-09-20 21:00;128,25
2017-09-20 21:15;126,85
2017-09-20 21:30;122,65
2017-09-20 21:45;120,15
2017-09-20 22:00;109,2
2017-09-20 22:15;113,4
2017-09-20 22:30;113,4
2017-09-20 22:45;108,65
2017-09-20 23:00;110,15
2017-09-20 23:15;97,9
2017-09-20 23:30;98,5
2017-09-20 23:45;99
2017-09-21 00:00;99,85
2017-09-21 00:15;99,25
2017-09-21 00:30;99,55
2017-09-21 00:45;101,65
2017-09-21 01:00;100,4
2017-09-21 01:15;99,7
2017-09-21 01:30;101,5
2017-09-21 01:45;100
2017-09-21 02:00;99,75
2017-09-21 02:15;100
2017-09-21 02:30;97,4
2017-09-21 02:45;99,85
2017-09-21 03:00;100,2
2017-09-21 03:15;98,7
2017-09-21 03:30;98,35
2017-09-21 03:45;98,1
2017-09-21 04:00;97,45
2017-09-21 04:15;97,85
2017-09-21 04:30;98,3
2017-09-21 04:45;95,85
2017-09-21 05:00;98,85
2017-09-21 05:15;99,35
2017-09-21 05:30;97
2017-09-21 05:45;95,2
2017-09-21 06:00;99,8
2017-09-21 06:15;98
2017-09-21 06:30;107,65
2017-09-21 06:45;115,85
2017-09-21 07:00;118,25
2017-09-21 07:15;112,75
2017-09-21 07:30;117,2
2017-09-21 07:45;116,1
2017-09-21 08:00;118,45
2017-09-21 08:15;122,5
2017-09-21 08:30;126,9
2017-09-21 08:45;139,15
2017-09-21 09:00;155,75
2017-09-21 09:15;159,05
2017-09-21 09:30;176,5
2017-09-21 09:45;233,75
2017-09-21 10:00;242,65
2017-09-21 10:15;225,75
2017-09-21 10:30;219,45
2017-09-21 10:45;216,6
2017-09-21 11:00;229,9
2017-09-21 11:15;225,85
2017-09-21 11:30;226,5
2017-09-21 11:45;240,05
2017-09-21 12:00;236,45
2017-09-21 12:15;235,6
2017-09-21 12:30;252,35
2017-09-21 12:45;247,35
2017-09-21 13:00;237,05
2017-09-21 13:15;243,35
2017-09-21 13:30;250,35
2017-09-21 13:45;249,35
2017-09-21 14:00;241,85
2017-09-21 14:15;237,9
2017-09-21 14:30;233,95
2017-09-21 14:45;236,2
2017-09-21 15:00;223,5
2017-09-21 15:15;221,55
2017-09-21 15:30;216,75
2017-09-21 15:45;213,75
2017-09-21 16:00;208
2017-09-21 16:15;204,55
2017-09-21 16:30;200,3
2017-09-21 16:45;198,65
2017-09-21 17:00;195
2017-09-21 17:15;177
2017-09-21 17:30;176,05
2017-09-21 17:45;171,85
2017-09-21 18:00;172,8
2017-09-21 18:15;158,7
2017-09-21 18:30;153,55
2017-09-21 18:45;148,85
2017-09-21 19:00;153,6
2017-09-21 19:15;145,8
2017-09-21 19:30;143,15
2017-09-21 19:45;141,95
2017-09-21 20:00;140,7
2017-09-21 20:15;142,65
2017-09-21 20:30;137,55
2017-09-21 20:45;141,1
2017-09-21 21:00;136,95
2017-09-21 21:15;129,85
2017-09-21 21:30;128,85
2017-09-21 21:45;127,75
2017-09-21 22:00;112,8
2017-09-21 22:15;117,7
2017-09-21 22:30;113,5
2017-09-21 22:45;105,7
2017-09-21 23:00;112,15
2017-09-21 23:15;102,5
2017-09-21 23:30;102
2017-09-21 23:45;95,35
2017-09-22 00:00;93,45
2017-09-22 00:15;93,95
2017-09-22 00:30;93,6
2017-09-22 00:45;95,55
2017-09-22 01:00;93,65
2017-09-22 01:15;94,2
2017-09-22 01:30;94,05
2017-09-22 01:45;93,75
2017-09-22 02:00;92,35
2017-09-22 02:15;94,35
2017-09-22 02:30;92,5
2017-09-22 02:45;93,4
2017-09-22 03:00;94,05
2017-09-22 03:15;92,9
2017-09-22 03:30;92,45
2017-09-22 03:45;91,9
2017-09-22 04:00;96,95
2017-09-22 04:15;95,85
2017-09-22 04:30;94,55
2017-09-22 04:45;94,6
2017-09-22 05:00;97,1
2017-09-22 05:15;96,55
2017-09-22 05:30;96,9
2017-09-22 05:45;98,3
2017-09-22 06:00;100,55
2017-09-22 06:15;99,35
2017-09-22 06:30;103,1
2017-09-22 06:45;113,45
2017-09-22 07:00;120,3
2017-09-22 07:15;116,05
2017-09-22 07:30;160,25
2017-09-22 07:45;163,55
2017-09-22 08:00;129,85
2017-09-22 08:15;129,75
2017-09-22 08:30;129,1
2017-09-22 08:45;149,9
2017-09-22 09:00;155,15
2017-09-22 09:15;156,9
2017-09-22 09:30;166,9
2017-09-22 09:45;165,1
2017-09-22 10:00;160,4
2017-09-22 10:15;174,85
2017-09-22 10:30;189,1
2017-09-22 10:45;189
2017-09-22 11:00;197,2
2017-09-22 11:15;208
2017-09-22 11:30;208,5
2017-09-22 11:45;203,6
2017-09-22 12:00;212,1
2017-09-22 12:15;210,25
2017-09-22 12:30;208,65
2017-09-22 12:45;215
2017-09-22 13:00;217,95
2017-09-22 13:15;211,7
2017-09-22 13:30;207,25
2017-09-22 13:45;224,45
2017-09-22 14:00;218,9
2017-09-22 14:15;209,05
2017-09-22 14:30;212,25
2017-09-22 14:45;207,65
2017-09-22 15:00;203,45
2017-09-22 15:15;190,9
2017-09-22 15:30;195,6
2017-09-22 15:45;198,15
2017-09-22 16:00;181,55
2017-09-22 16:15;187,1
2017-09-22 16:30;182,85
2017-09-22 16:45;163,6
2017-09-22 17:00;170,05
2017-09-22 17:15;163,55
2017-09-22 17:30;166,2
2017-09-22 17:45;164,6
2017-09-22 18:00;157,55
2017-09-22 18:15;155,7
2017-09-22 18:30;147,35
2017-09-22 18:45;136,45
2017-09-22 19:00;135,15
2017-09-22 19:15;131,1
2017-09-22 19:30;132,25
2017-09-22 19:45;135,95
2017-09-22 20:00;137,15
2017-09-22 20:15;129,3
2017-09-22 20:30;127,85
2017-09-22 20:45;126,45
2017-09-22 21:00;118,25
2017-09-22 21:15;115,65
2017-09-22 21:30;119,2
2017-09-22 21:45;116,35
2017-09-22 22:00;111,15
2017-09-22 22:15;112,65
2017-09-22 22:30;110,4
2017-09-22 22:45;105,6
2017-09-22 23:00;107,4
2017-09-22 23:15;99,75
2017-09-22 23:30;99,9
2017-09-22 23:45;104,1
2017-09-23 00:00;98,4
2017-09-23 00:15;96,5
2017-09-23 00:30;96,2
2017-09-23 00:45;96,65
2017-09-23 01:00;95,7
2017-09-23 01:15;94,7
2017-09-23 01:30;95,2
2017-09-23 01:45;91,75
2017-09-23 02:00;92,85
2017-09-23 02:15;89,95
2017-09-23 02:30;90,35
2017-09-23 02:45;89,3
2017-09-23 03:00;89,7
2017-09-23 03:15;90,3
2017-09-23 03:30;89,8
2017-09-23 03:45;88,9
2017-09-23 04:00;87,2
2017-09-23 04:15;87,85
2017-09-23 04:30;89,95
2017-09-23 04:45;88,2
2017-09-23 05:00;88,2
2017-09-23 05:15;87,95
2017-09-23 05:30;87,75
2017-09-23 05:45;91,1
2017-09-23 06:00;91,15
2017-09-23 06:15;92,25
2017-09-23 06:30;94,3
2017-09-23 06:45;92,2
2017-09-23 07:00;92,15
2017-09-23 07:15;89,85
2017-09-23 07:30;87,45
2017-09-23 07:45;83,85
2017-09-23 08:00;84,25
2017-09-23 08:15;83,05
2017-09-23 08:30;84,3
2017-09-23 08:45;82,6
2017-09-23 09:00;84,25
2017-09-23 09:15;84
2017-09-23 09:30;83,3
2017-09-23 09:45;83,85
2017-09-23 10:00;84,75
2017-09-23 10:15;86,2
2017-09-23 10:30;89,45
2017-09-23 10:45;88,4
2017-09-23 11:00;87,45
2017-09-23 11:15;93,4
2017-09-23 11:30;95,35
2017-09-23 11:45;93
2017-09-23 12:00;92,15
2017-09-23 12:15;95,6
2017-09-23 12:30;93,3
2017-09-23 12:45;96
2017-09-23 13:00;91,65
2017-09-23 13:15;91
2017-09-23 13:30;93,7
2017-09-23 13:45;92,5
2017-09-23 14:00;90,4
2017-09-23 14:15;95,95
2017-09-23 14:30;90,9
2017-09-23 14:45;91,55
2017-09-23 15:00;94,35
2017-09-23 15:15;94,3
2017-09-23 15:30;95,05
2017-09-23 15:45;92,8
2017-09-23 16:00;89,1
2017-09-23 16:15;90,4
2017-09-23 16:30;91,95
2017-09-23 16:45;92,75
2017-09-23 17:00;95,85
2017-09-23 17:15;91,8
2017-09-23 17:30;95,6
2017-09-23 17:45;91,2
2017-09-23 18:00;89,15
2017-09-23 18:15;88,1
2017-09-23 18:30;89,05
2017-09-23 18:45;89,25
2017-09-23 19:00;88,05
2017-09-23 19:15;90,95
2017-09-23 19:30;99,8
2017-09-23 19:45;100,3
2017-09-23 20:00;103,8
2017-09-23 20:15;103,7
2017-09-23 20:30;105,1
2017-09-23 20:45;101,15
2017-09-23 21:00;104,75
2017-09-23 21:15;100,25
2017-09-23 21:30;102,7
2017-09-23 21:45;99,95
2017-09-23 22:00;96,55
2017-09-23 22:15;103,1
2017-09-23 22:30;103,75
2017-09-23 22:45;99
2017-09-23 23:00;96,65
2017-09-23 23:15;85,75
2017-09-23 23:30;87,15
2017-09-23 23:45;86,15
2017-09-24 00:00;87,1
2017-09-24 00:15;87,55
2017-09-24 00:30;87,35
2017-09-24 00:45;86,8
2017-09-24 01:00;86,15
2017-09-24 01:15;86,15
2017-09-24 01:30;87,25
2017-09-24 01:45;86,8
2017-09-24 02:00;87,45
2017-09-24 02:15;87,25
2017-09-24 02:30;86,4
2017-09-24 02:45;87,75
2017-09-24 03:00;87,55
2017-09-24 03:15;86,7
2017-09-24 03:30;86,05
2017-09-24 03:45;85,85
2017-09-24 04:00;86,3
2017-09-24 04:15;88,45
2017-09-24 04:30;86,4
2017-09-24 04:45;85,2
2017-09-24 05:00;85,6
2017-09-24 05:15;84,6
2017-09-24 05:30;84,65
2017-09-24 05:45;86,45
2017-09-24 06:00;91,85
2017-09-24 06:15;91,65
2017-09-24 06:30;92
2017-09-24 06:45;89,75
2017-09-24 07:00;90,55
2017-09-24 07:15;89,15
2017-09-24 07:30;82,75
2017-09-24 07:45;82,35
2017-09-24 08:00;82,75
2017-09-24 08:15;84,05
2017-09-24 08:30;80,3
2017-09-24 08:45;82,15
2017-09-24 09:00;81,45
2017-09-24 09:15;81,95
2017-09-24 09:30;81,9
2017-09-24 09:45;81,65
2017-09-24 10:00;85,8
2017-09-24 10:15;84,05
2017-09-24 10:30;82,95
2017-09-24 10:45;83,7
2017-09-24 11:00;84,65
2017-09-24 11:15;85,5
2017-09-24 11:30;88
2017-09-24 11:45;85,5
2017-09-24 12:00;85,6
2017-09-24 12:15;87,8
2017-09-24 12:30;90,25
2017-09-24 12:45;84,65
2017-09-24 13:00;87,3
2017-09-24 13:15;88
2017-09-24 13:30;88,3
2017-09-24 13:45;90,85
2017-09-24 14:00;88,85
2017-09-24 14:15;85,4
2017-09-24 14:30;89,05
2017-09-24 14:45;84,25
2017-09-24 15:00;87,4
2017-09-24 15:15;84
2017-09-24 15:30;90,2
2017-09-24 15:45;87,5
2017-09-24 16:00;84,9
2017-09-24 16:15;87,05
2017-09-24 16:30;91,35
2017-09-24 16:45;93
2017-09-24 17:00;94,75
2017-09-24 17:15;95,75
2017-09-24 17:30;92,25
2017-09-24 17:45;94,05
2017-09-24 18:00;94,4
2017-09-24 18:15;93
2017-09-24 18:30;89,25
2017-09-24 18:45;92,8
2017-09-24 19:00;89,4
2017-09-24 19:15;90,55
2017-09-24 19:30;93,35
2017-09-24 19:45;96,6
2017-09-24 20:00;95,25
2017-09-24 20:15;90,95
2017-09-24 20:30;89,6
2017-09-24 20:45;89,9
2017-09-24 21:00;92,3
2017-09-24 21:15;90,75
2017-09-24 21:30;92,25
2017-09-24 21:45;88,45
2017-09-24 22:00;89,85
2017-09-24 22:15;95,25
2017-09-24 22:30;94,45
2017-09-24 22:45;90,5
2017-09-24 23:00;94,85
2017-09-24 23:15;85,45
2017-09-24 23:30;85
2017-09-24 23:45;85,85

